EW8328 Weather Reports


time (UTC)temp
F
wind
direction
speed
knots
gust
knots
rain 1hr
in
rain 24hr
in
rain mn
in
humidity
%
barometer
mb
20260831060812 56 262 2.6 5.2 0.00 0.26 0.02 96 1003.6
20260831055813 56 252 0.9 2.6 0.00 0.26 0.02 96 1003.5
20260831055311 56 252 1.7 4.3 0.00 0.26 0.02 96 1003.4
20260831054812 56 246 1.7 4.3 0.00 0.26 0.02 96 1003.3
20260831054312 56 232 0.9 2.6 0.00 0.26 0.02 96 1003.2
20260831053312 56 225 0.9 2.6 0.00 0.26 0.02 96 1003.1
20260831051811 56 254 1.7 4.3 0.00 0.26 0.02 96 1002.9
20260831051311 56 257 0.9 2.6 0.00 0.26 0.02 96 1002.8
20260831050812 56 244 1.7 2.6 0.00 0.26 0.02 96 1002.6
20260831050311 56 256 1.7 4.3 0.00 0.26 0.02 96 1002.6
20260831045811 56 235 0.9 2.6 0.00 0.26 0.02 96 1002.5
20260831045312 56 236 1.7 4.3 0.00 0.26 0.02 96 1002.5
20260831044812 56 245 1.7 4.3 0.00 0.26 0.02 96 1002.4
20260831044312 56 250 0.9 5.2 0.00 0.28 0.02 96 1002.4
20260831043811 57 242 0.9 4.3 0.00 0.28 0.02 96 1002.3
20260831043311 57 270 0.9 5.2 0.00 0.32 0.02 96 1002.3
20260831042811 57 266 0.9 1.7 0.00 0.34 0.02 96 1002.2
20260831042312 57 277 0.9 2.6 0.00 0.37 0.02 96 1002.3
20260831041811 57 239 1.7 2.6 0.00 0.39 0.02 96 1002.3
20260831041311 57 249 1.7 2.6 0.00 0.39 0.02 96 1002.3
20260831040812 57 303 0.9 2.6 0.00 0.42 0.02 96 1002.3
20260831040312 57 232 0.9 2.6 0.00 0.43 0.02 96 1002.2
20260831035811 57 257 1.7 2.6 0.00 0.43 0.02 96 1002.2
20260831035311 57 249 0.9 2.6 0.00 0.43 0.02 96 1002.1
20260831034812 57 239 0.9 2.6 0.00 0.44 0.02 96 1002.1
20260831034311 57 81 0.9 2.6 0.00 0.44 0.02 96 1002.1
20260831033811 56 81 0.0 1.7 0.00 0.45 0.02 96 1002.0
20260831032812 57 81 0.9 0.9 0.00 0.46 0.02 96 1002.0
20260831032311 57 81 0.9 1.7 0.00 0.46 0.02 96 1001.9
20260831031811 57 81 0.9 1.7 0.00 0.46 0.02 96 1001.9
20260831031312 57 81 0.9 2.6 0.00 0.46 0.02 96 1001.9
20260831030811 57 81 0.0 1.7 0.00 0.46 0.02 96 1001.8
20260831030311 57 81 0.0 0.9 0.00 0.46 0.02 96 1001.7
20260831025811 57 81 0.0 0.0 0.00 0.46 0.02 96 1001.7
20260831025311 57 81 0.0 0.9 0.00 0.46 0.02 96 1001.7
20260831024812 57 81 0.9 0.9 0.00 0.46 0.02 96 1001.7
20260831024311 57 81 0.0 1.7 0.00 0.46 0.02 96 1001.6
20260831023812 57 81 0.0 0.9 0.00 0.46 0.02 96 1001.6
20260831022812 57 81 0.0 0.0 0.00 0.46 0.02 96 1001.5
20260831022311 57 81 0.0 0.0 0.00 0.46 0.02 96 1001.5
20260831021812 57 81 0.0 0.0 0.00 0.46 0.02 96 1001.5
20260831021311 57 81 0.0 0.0 0.00 0.46 0.02 96 1001.5
20260831020813 57 81 0.0 0.0 0.00 0.46 0.02 96 1001.4
20260831020311 57 81 0.0 0.0 0.00 0.46 0.02 96 1001.4
20260831015312 57 81 0.0 0.9 0.00 0.46 0.02 96 1001.3
20260831014811 57 81 0.9 0.9 0.00 0.46 0.02 96 1001.3
20260831014311 57 81 0.0 0.9 0.00 0.46 0.02 96 1001.3
20260831013811 57 81 0.0 0.0 0.00 0.46 0.02 96 1001.3
20260831013311 57 81 0.0 0.0 0.00 0.46 0.02 96 1001.2
20260831012812 57 81 0.0 0.9 0.00 0.46 0.02 96 1001.3
20260831012311 57 81 0.0 1.7 0.00 0.46 0.02 96 1001.3
20260831011811 57 81 0.0 0.9 0.00 0.46 0.02 96 1001.4
20260831011311 57 81 0.0 1.7 0.00 0.46 0.02 96 1001.4
20260831010812 57 81 0.9 1.7 0.01 0.46 0.02 96 1001.4
20260831010311 57 81 0.0 0.9 0.01 0.46 0.02 96 1001.4
20260831005811 57 81 0.0 0.0 0.01 0.46 0.02 96 1001.4
20260831005311 57 81 0.0 0.0 0.01 0.46 0.02 96 1001.4
20260831004811 57 81 0.0 1.7 0.01 0.46 0.02 96 1001.5
20260831004311 57 81 0.9 1.7 0.01 0.46 0.02 96 1001.5
20260831003811 57 81 0.0 0.0 0.01 0.46 0.02 96 1001.5
20260831003311 57 81 0.0 0.9 0.01 0.46 0.02 96 1001.5
20260831002813 57 81 0.9 0.9 0.01 0.46 0.02 96 1001.4
20260831002311 57 81 0.0 0.9 0.01 0.46 0.02 95 1001.3
20260831001811 57 81 0.0 0.0 0.01 0.46 0.02 96 1001.3
20260831001311 57 81 0.9 14.8 0.02 0.46 0.02 96 1001.3
20260831000311 57 81 0.0 0.9 0.01 0.45 0.01 95 1001.2
20260830235811 57 81 0.9 1.7 0.01 0.45 0.01 95 1001.2
20260830235311 57 81 0.0 0.9 0.01 0.45 0.01 95 1001.2
20260830234812 57 81 0.9 1.7 0.01 0.45 0.01 95 1001.3
20260830234312 57 81 0.9 1.7 0.01 0.45 0.01 95 1001.3
20260830233811 57 81 0.0 0.9 0.01 0.45 0.01 95 1001.4
20260830233311 57 81 0.9 1.7 0.01 0.45 0.01 95 1001.5
20260830232811 57 81 0.9 1.7 0.01 0.45 0.01 95 1001.5
20260830232311 57 81 0.9 1.7 0.01 0.46 0.01 95 1001.5
20260830231812 57 81 0.9 0.9 0.01 0.46 0.01 95 1001.5
20260830230900 57 81 0.9 1.7 0.00 0.45 0.00 95 1001.6
20260830230312 57 81 0.9 0.9 0.00 0.45 0.00 95 1001.7
20260830225813 57 81 0.0 0.9 0.00 0.45 0.45 95 1001.7
20260830225311 57 81 0.0 0.9 0.00 0.45 0.45 95 1001.8
20260830224811 57 81 0.9 1.7 0.00 0.45 0.45 95 1001.8
20260830224311 57 81 0.9 1.7 0.00 0.45 0.45 95 1001.9
20260830223811 57 81 0.9 2.6 0.00 0.45 0.45 95 1001.9
20260830223311 57 98 0.9 2.6 0.00 0.45 0.45 95 1002.1
20260830222811 57 98 0.9 2.6 0.00 0.45 0.45 95 1002.1
20260830222311 57 98 0.9 1.7 0.00 0.45 0.45 95 1002.1
20260830221811 57 98 0.0 0.9 0.00 0.45 0.45 95 1002.1
20260830221311 57 98 0.0 1.7 0.00 0.45 0.45 95 1002.1
20260830220812 57 98 0.9 1.7 0.00 0.45 0.45 94 1002.2
20260830220311 57 98 0.9 0.9 0.00 0.45 0.45 94 1002.2
20260830215811 57 98 0.9 1.7 0.00 0.45 0.45 94 1002.2
20260830214811 57 98 0.9 1.7 0.00 0.45 0.45 94 1002.2
20260830214311 57 98 0.0 1.7 0.00 0.45 0.45 94 1002.1
20260830213311 58 98 0.9 1.7 0.00 0.45 0.45 93 1002.0
20260830212811 58 98 0.9 1.7 0.00 0.45 0.45 93 1002.0
20260830212311 58 98 0.9 1.7 0.00 0.45 0.45 93 1002.0
20260830211811 59 98 0.0 0.9 0.00 0.45 0.45 93 1002.0
20260830211312 59 98 0.0 1.7 0.00 0.45 0.45 93 1002.1
20260830210811 59 98 0.0 2.6 0.00 0.45 0.45 93 1002.1
20260830205811 59 98 0.0 1.7 0.00 0.45 0.45 93 1002.3
20260830204811 59 118 0.9 2.6 0.00 0.45 0.45 93 1002.4
20260830203811 59 138 0.0 0.9 0.00 0.46 0.45 93 1002.4
20260830203311 59 138 0.0 2.6 0.00 0.46 0.45 93 1002.4
20260830201812 59 155 0.0 1.7 0.00 0.46 0.45 93 1002.4
20260830201311 59 155 0.9 0.9 0.00 0.46 0.45 93 1002.4
20260830200811 59 155 0.0 1.7 0.00 0.46 0.45 93 1002.4
20260830200311 59 155 0.9 1.7 0.00 0.46 0.45 93 1002.5
20260830195811 59 155 1.7 4.3 0.00 0.46 0.45 93 1002.4
20260830195312 59 93 0.9 2.6 0.00 0.46 0.45 94 1002.5
20260830194812 59 48 0.9 4.3 0.00 0.46 0.45 94 1002.4
20260830194310 59 178 0.9 2.6 0.00 0.46 0.45 94 1002.5
20260830193811 58 49 0.9 2.6 0.02 0.46 0.45 94 1002.4
20260830193310 58 250 0.9 1.7 0.04 0.46 0.45 94 1002.4
20260830192811 58 250 0.9 1.7 0.06 0.46 0.45 94 1002.4
20260830192311 58 250 0.9 1.7 0.06 0.46 0.45 93 1002.4
20260830191811 58 250 0.0 1.7 0.08 0.46 0.45 93 1002.4
20260830191310 58 250 0.0 1.7 0.09 0.46 0.45 93 1002.3
20260830190811 58 250 0.0 0.9 0.12 0.46 0.45 93 1002.1
20260830190311 58 250 0.0 1.7 0.18 0.46 0.45 93 1002.1
20260830185811 58 250 0.0 1.7 0.19 0.46 0.45 92 1002.0
20260830185311 58 250 0.9 1.7 0.19 0.46 0.45 92 1002.1
20260830184811 59 250 0.9 1.7 0.19 0.46 0.45 92 1002.2
20260830184311 59 250 0.0 2.6 0.20 0.46 0.45 92 1002.4
20260830183813 59 154 0.9 2.6 0.20 0.44 0.43 91 1002.5
20260830183311 59 153 0.9 2.6 0.18 0.42 0.41 91 1002.7
20260830181811 59 174 4.3 7.0 0.14 0.38 0.37 88 1002.7
20260830181311 60 155 4.3 10.4 0.13 0.37 0.36 87 1002.8
20260830175310 64 119 0.9 2.6 0.03 0.27 0.26 88 1002.4
20260830174812 64 119 0.9 2.6 0.03 0.27 0.26 87 1002.4
20260830174311 64 134 0.9 2.6 0.02 0.26 0.25 86 1002.7
20260830173811 64 168 0.0 1.7 0.00 0.24 0.23 86 1002.7
20260830173311 64 168 0.0 0.9 0.00 0.24 0.23 86 1002.6
20260830172811 64 168 0.0 0.9 0.00 0.24 0.23 86 1002.5
20260830172311 64 168 0.0 0.9 0.00 0.24 0.23 86 1002.7
20260830170811 64 168 0.9 2.6 0.00 0.24 0.23 84 1002.9
20260830170311 64 168 0.0 2.6 0.00 0.24 0.23 83 1002.9
20260830165311 64 117 0.9 4.3 0.00 0.24 0.23 84 1002.8
20260830164811 64 108 1.7 4.3 0.00 0.24 0.23 84 1002.8
20260830164311 64 128 0.9 2.6 0.00 0.24 0.23 84 1002.8
20260830163811 64 128 0.9 2.6 0.00 0.24 0.23 85 1002.8
20260830163311 64 128 0.9 2.6 0.00 0.24 0.23 84 1002.8
20260830162811 64 167 0.0 1.7 0.00 0.24 0.23 85 1002.9
20260830161811 64 167 1.7 4.3 0.00 0.24 0.23 86 1003.0
20260830161311 63 167 1.7 2.6 0.00 0.24 0.23 86 1003.0
20260830160811 63 167 1.7 2.6 0.00 0.24 0.23 85 1003.0
20260830160311 63 167 0.0 2.6 0.00 0.24 0.23 86 1003.0
20260830155811 63 167 0.9 2.6 0.00 0.24 0.23 86 1003.0
20260830154811 63 168 1.7 2.6 0.00 0.24 0.23 85 1003.2
20260830154311 63 103 0.9 2.6 0.00 0.24 0.23 87 1003.3
20260830153812 63 103 0.9 2.6 0.01 0.24 0.23 88 1003.4
20260830152811 62 103 1.7 4.3 0.02 0.24 0.23 89 1003.4
20260830151311 62 132 0.9 2.6 0.02 0.24 0.23 89 1003.6
20260830150811 62 175 1.7 2.6 0.02 0.24 0.23 90 1003.6
20260830145811 61 175 1.7 2.6 0.02 0.24 0.23 89 1003.6
20260830145311 61 135 1.7 5.2 0.02 0.24 0.23 89 1003.7
20260830144810 62 164 2.6 5.2 0.02 0.24 0.23 88 1003.9
20260830143311 63 203 3.5 7.8 0.01 0.22 0.21 86 1004.3
20260830142811 63 218 6.1 10.4 0.00 0.21 0.20 84 1004.3
20260830141812 63 170 5.2 7.8 0.00 0.21 0.20 83 1004.1
20260830141310 63 201 5.2 10.4 0.00 0.21 0.20 84 1004.2
20260830140810 63 204 4.3 7.0 0.00 0.21 0.20 84 1004.2
20260830140311 64 210 6.1 10.4 0.00 0.21 0.20 82 1004.3
20260830135811 65 214 5.2 10.4 0.00 0.21 0.20 79 1004.3
20260830135312 66 213 7.0 12.2 0.00 0.21 0.20 76 1004.3
20260830134811 66 176 7.0 11.3 0.00 0.21 0.20 73 1004.2
20260830134310 67 174 6.1 10.4 0.00 0.21 0.20 71 1004.1
20260830133811 67 163 4.3 8.7 0.00 0.21 0.20 71 1004.1
20260830133310 67 140 5.2 8.7 0.00 0.21 0.20 69 1004.0
20260830132811 68 189 5.2 8.7 0.00 0.21 0.20 69 1004.1
20260830132310 68 148 3.5 7.8 0.00 0.21 0.20 69 1004.0
20260830131811 68 156 4.3 8.7 0.00 0.21 0.20 69 1004.2
20260830131311 68 179 3.5 7.8 0.00 0.21 0.20 68 1004.3
20260830130811 68 141 4.3 8.7 0.00 0.21 0.20 67 1004.2
20260830125810 69 150 4.3 7.0 0.00 0.21 0.20 67 1004.2
20260830125310 69 154 4.3 7.8 0.00 0.21 0.20 68 1004.3
20260830124810 69 153 3.5 6.1 0.00 0.21 0.20 67 1004.3
20260830124311 69 157 5.2 10.4 0.00 0.21 0.20 67 1004.4
20260830123810 69 136 4.3 10.4 0.00 0.21 0.20 67 1004.5
20260830123312 69 188 2.6 7.8 0.00 0.21 0.20 68 1004.6
20260830122811 69 159 3.5 7.8 0.00 0.21 0.20 68 1004.5
20260830122311 68 153 4.3 7.8 0.00 0.21 0.20 68 1004.6
20260830121311 67 171 2.6 6.1 0.00 0.21 0.20 71 1004.7
20260830120811 67 192 2.6 7.0 0.00 0.21 0.20 70 1004.7
20260830115811 67 151 3.5 7.0 0.00 0.21 0.20 70 1004.7
20260830114811 68 205 3.5 7.8 0.00 0.21 0.20 70 1004.7
20260830114311 68 215 3.5 6.1 0.00 0.21 0.20 69 1004.8
20260830113810 68 177 3.5 7.0 0.00 0.21 0.20 70 1004.8
20260830113311 68 168 4.3 7.8 0.00 0.21 0.20 70 1004.9
20260830112310 67 222 3.5 8.7 0.00 0.21 0.20 70 1005.0
20260830111310 67 185 4.3 7.8 0.00 0.21 0.20 72 1005.1
20260830110810 67 172 2.6 7.8 0.00 0.21 0.20 74 1005.1
20260830110310 66 183 4.3 6.1 0.00 0.21 0.20 74 1005.2
20260830105810 66 203 2.6 6.1 0.00 0.21 0.20 77 1005.3
20260830105310 66 220 4.3 7.0 0.00 0.21 0.20 78 1005.3
20260830104810 66 179 4.3 7.8 0.00 0.21 0.20 78 1005.2
20260830104310 66 181 4.3 7.8 0.00 0.21 0.20 78 1005.3
20260830103810 65 204 2.6 7.8 0.00 0.21 0.20 79 1005.3
20260830103310 65 210 2.6 6.1 0.00 0.21 0.20 81 1005.4
20260830102811 65 208 2.6 6.1 0.00 0.21 0.20 83 1005.3
20260830102310 64 200 3.5 10.4 0.00 0.21 0.20 82 1005.2
20260830101810 64 205 4.3 7.8 0.00 0.21 0.20 83 1005.3
20260830101310 64 205 4.3 7.8 0.00 0.21 0.20 84 1005.4
20260830100811 63 199 5.2 7.0 0.00 0.21 0.20 84 1005.4
20260830100311 63 189 4.3 7.8 0.00 0.21 0.20 85 1005.4
20260830095812 63 190 3.5 7.0 0.00 0.21 0.20 86 1005.5
20260830095310 63 204 4.3 6.1 0.00 0.21 0.20 86 1005.5
20260830094811 63 167 3.5 7.8 0.00 0.21 0.20 87 1005.5
20260830094310 63 212 2.6 7.0 0.00 0.21 0.20 87 1005.5
20260830093810 63 172 2.6 5.2 0.00 0.21 0.20 88 1005.6
20260830093310 63 198 3.5 6.1 0.00 0.21 0.20 87 1005.5
20260830092810 62 203 2.6 7.8 0.00 0.21 0.20 88 1005.5
20260830092310 62 180 3.5 8.7 0.00 0.21 0.20 89 1005.5
20260830091310 62 215 2.6 7.8 0.00 0.21 0.20 90 1005.5
20260830090810 62 176 1.7 5.2 0.00 0.21 0.20 91 1005.5
20260830090310 61 184 1.7 5.2 0.00 0.21 0.20 92 1005.5
20260830085811 61 180 0.9 4.3 0.00 0.21 0.20 93 1005.5
20260830085310 61 215 0.9 2.6 0.00 0.21 0.20 93 1005.5
20260830084810 61 215 0.9 2.6 0.00 0.21 0.20 93 1005.5
20260830084310 61 215 0.9 2.6 0.00 0.21 0.20 93 1005.5
20260830083811 61 215 1.7 2.6 0.00 0.21 0.20 93 1005.5
20260830083311 61 171 0.9 4.3 0.00 0.21 0.20 93 1005.5
20260830082310 60 211 0.9 2.6 0.00 0.21 0.20 94 1005.4
20260830081811 60 222 1.7 5.2 0.00 0.21 0.20 95 1005.4
20260830081310 60 192 0.9 1.7 0.00 0.21 0.20 95 1005.3
20260830080310 60 154 0.9 2.6 0.00 0.21 0.20 95 1005.3
20260830075309 60 126 0.0 1.7 0.00 0.21 0.20 96 1005.4
20260830074810 60 126 0.9 1.7 0.00 0.21 0.20 96 1005.4
20260830074311 60 126 0.0 2.6 0.00 0.21 0.20 96 1005.4
20260830073810 60 126 0.9 2.6 0.00 0.21 0.20 96 1005.4
20260830073310 60 126 0.9 2.6 0.00 0.21 0.20 96 1005.4
20260830072810 60 126 1.7 2.6 0.00 0.21 0.20 96 1005.4
20260830072310 60 153 0.9 1.7 0.00 0.21 0.20 96 1005.4
20260830071810 60 153 0.0 1.7 0.00 0.21 0.20 96 1005.4
20260830071310 60 153 0.9 1.7 0.00 0.21 0.20 96 1005.4
20260830070810 60 153 0.0 1.7 0.00 0.21 0.20 96 1005.4
20260830070310 59 153 0.0 1.7 0.00 0.21 0.20 96 1005.3
20260830065310 59 153 0.0 0.9 0.00 0.21 0.20 96 1005.4
20260830064810 59 153 0.0 0.9 0.00 0.21 0.20 96 1005.3
20260830064310 59 153 0.0 1.7 0.00 0.21 0.20 96 1005.3
20260830063810 60 153 0.9 0.9 0.00 0.21 0.20 96 1005.2
20260830062810 59 153 0.0 1.7 0.00 0.21 0.20 96 1005.2
20260830062310 59 153 0.0 1.7 0.00 0.21 0.20 96 1005.1
20260830061810 59 153 0.0 1.7 0.00 0.21 0.20 96 1005.1
20260830061310 59 153 0.0 1.7 0.00 0.21 0.20 96 1005.1